{"data":{"norad_id":39059,"intl_designator":"2013-001C","name":"COSMOS 2484 (RODNIK-S 6)","alt_names":[],"object_type":"PAYLOAD","status":"ACTIVE","operator":null,"country":"CIS","launch_date":"2013-01-15","launch_site_code":"PLMSC","launch_vehicle":null,"mission":null,"orbit_class":"UNKNOWN","rcs_meters":1.474,"size_class":null,"mass_kg":null,"dimensions":null,"purposes":[],"wikipedia_slug":null,"has_3d_model":false,"image_url":null,"decayed_at":null,"tle_current":{"epoch":"2026-05-25T04:55:46.072704Z","epoch_age_seconds":64064,"freshness":"FRESH","line1":"1 39059U 13001C   26145.20539436  .00000181  00000+0  12339-2 0  9990","line2":"2 39059  82.5021 236.1790 0027504  85.1289 275.2930 12.42939013605705","mean_motion":12.42939013,"eccentricity":0.0027504,"inclination_deg":82.5021,"raan_deg":236.179,"arg_perigee_deg":85.1289,"mean_anomaly_deg":275.293,"bstar":0.0012339,"rev_number":60570,"period_min":115.85443734076,"perigee_km":1472.5169106716,"apogee_km":1515.8208909709,"semimajor_km":7872.3059008213,"source":"CELESTRAK","updated_at":"2026-05-25T13:37:55.335030Z"}}}